• en Belgique
  • Liste des pays
  • À 7 jours
  • Température de l'eau
  • Carte satellitaire
  • Carte météo
  • Widgets météo
  • user-avatar
    Se connecter

    Météo par heure à Tiranё

    Ce jour, 25 Février, Dimanche

    Heure Température Précipitation Vent Pression Humidité
    00:00 +6°C° 0,1 mm 4 m/s 748 mmHg 77%
    01:00 +6°C° 0 mm 4 m/s 748 mmHg 77%
    02:00 +6°C° 0,2 mm 4 m/s 748 mmHg 77%
    03:00 +5°C° 0,2 mm 4 m/s 748 mmHg 76%
    04:00 +5°C° 0,2 mm 4 m/s 748 mmHg 76%
    05:00 +5°C° 0,5 mm 4 m/s 748 mmHg 76%
    06:00 +5°C° 0,5 mm 5 m/s 748 mmHg 76%
    07:00 +5°C° 0 mm 4 m/s 747 mmHg 80%
    08:00 +6°C° 0,8 mm 5 m/s 747 mmHg 78%
    09:00 +6°C° 0,8 mm 5 m/s 747 mmHg 77%
    10:00 +6°C° 0,8 mm 5 m/s 748 mmHg 75%
    11:00 +7°C° 0,4 mm 5 m/s 747 mmHg 75%
    12:00 +7°C° 0,4 mm 5 m/s 747 mmHg 75%
    13:00 +7°C° 0 mm 5 m/s 747 mmHg 74%
    14:00 +6°C° 0,9 mm 5 m/s 747 mmHg 78%
    15:00 +4°C° 0,9 mm 6 m/s 747 mmHg 81%
    16:00 +4°C° 0,9 mm 6 m/s 746 mmHg 85%
    17:00 +3°C° 1,7 mm 6 m/s 746 mmHg 85%
    18:00 +3°C° 1,7 mm 6 m/s 746 mmHg 84%
    19:00 +2°C° 1,7 mm 6 m/s 746 mmHg 84%
    20:00 +2°C° 1,4 mm 7 m/s 745 mmHg 84%
    21:00 0°C° 1,4 mm 7 m/s 745 mmHg 83%
    22:00 0°C° 1,4 mm 8 m/s 744 mmHg 82%
    23:00 0°C° 2,4 mm 8 m/s 744 mmHg 83%

    Demain, 26 Février, Lundi

    Heure Température Précipitation Vent Pression Humidité
    00:00 -1°C° 2,4 mm 9 m/s 743 mmHg 84%
    01:00 -1°C° 2,4 mm 9 m/s 743 mmHg 84%
    02:00 -1°C° 1,6 mm 9 m/s 742 mmHg 85%
    03:00 -1°C° 1,6 mm 8 m/s 742 mmHg 86%
    04:00 -1°C° 1,6 mm 8 m/s 742 mmHg 86%
    05:00 -1°C° 0,5 mm 8 m/s 742 mmHg 86%
    06:00 -1°C° 0,5 mm 7 m/s 742 mmHg 87%
    07:00 -1°C° 0,5 mm 7 m/s 742 mmHg 87%
    08:00 +1°C° 0,6 mm 6 m/s 742 mmHg 86%
    09:00 +1°C° 0,6 mm 5 m/s 742 mmHg 84%
    10:00 +2°C° 0,6 mm 5 m/s 743 mmHg 83%
    11:00 +4°C° 0,1 mm 4 m/s 742 mmHg 83%
    12:00 +4°C° 0,1 mm 4 m/s 742 mmHg 83%
    13:00 +5°C° 0,1 mm 3 m/s 741 mmHg 83%
    14:00 +5°C° 0,1 mm 3 m/s 741 mmHg 83%
    15:00 +7°C° 0,1 mm 3 m/s 741 mmHg 83%
    16:00 +7°C° 0,1 mm 3 m/s 741 mmHg 83%
    17:00 +5°C° 0,6 mm 3 m/s 741 mmHg 86%
    18:00 +6°C° 0,6 mm 2 m/s 742 mmHg 89%
    19:00 +5°C° 0,6 mm 2 m/s 742 mmHg 92%
    20:00 +5°C° 0,3 mm 2 m/s 742 mmHg 93%
    21:00 +4°C° 0,3 mm 2 m/s 742 mmHg 94%
    22:00 +3°C° 0,3 mm 3 m/s 742 mmHg 94%
    23:00 +3°C° 0,4 mm 3 m/s 743 mmHg 95%

    Après-demain, 27 Février, Mardi

    Heure Température Précipitation Vent Pression Humidité
    00:00 +3°C° 0,4 mm 3 m/s 743 mmHg 95%
    01:00 +3°C° 0,4 mm 4 m/s 743 mmHg 95%
    02:00 +3°C° 0,5 mm 4 m/s 744 mmHg 94%
    03:00 +1°C° 0,5 mm 4 m/s 744 mmHg 94%
    04:00 +1°C° 0,5 mm 4 m/s 744 mmHg 93%
    05:00 +1°C° 0,6 mm 4 m/s 745 mmHg 93%
    06:00 +1°C° 0,6 mm 5 m/s 745 mmHg 93%
    07:00 +1°C° 0,6 mm 5 m/s 746 mmHg 93%
    08:00 +1°C° 0,5 mm 5 m/s 746 mmHg 91%
    09:00 +2°C° 0,5 mm 6 m/s 746 mmHg 89%
    10:00 +2°C° 0,5 mm 7 m/s 747 mmHg 87%
    11:00 +2°C° 0,4 mm 6 m/s 747 mmHg 86%
    12:00 +3°C° 0,4 mm 6 m/s 747 mmHg 85%
    13:00 +3°C° 0,4 mm 5 m/s 747 mmHg 83%
    14:00 +4°C° 0,2 mm 4 m/s 747 mmHg 82%
    15:00 +4°C° 0,2 mm 3 m/s 747 mmHg 81%
    16:00 +5°C° 0,2 mm 2 m/s 747 mmHg 79%
    17:00 +3°C° 0 mm 2 m/s 748 mmHg 82%
    18:00 +2°C° 0 mm 2 m/s 748 mmHg 84%
    19:00 +1°C° 0 mm 2 m/s 749 mmHg 86%
    20:00 0°C° 0 mm 3 m/s 749 mmHg 84%
    21:00 0°C° 0 mm 3 m/s 749 mmHg 83%
    22:00 0°C° 0 mm 3 m/s 749 mmHg 81%
    23:00 0°C° 0,1 mm 3 m/s 749 mmHg 82%

    28 Février, Mercredi

    Heure Température Précipitation Vent Pression Humidité
    00:00 -1°C° 0,1 mm 4 m/s 748 mmHg 82%
    01:00 0°C° 0,1 mm 4 m/s 748 mmHg 83%
    02:00 0°C° 0,2 mm 4 m/s 748 mmHg 84%
    03:00 0°C° 0,2 mm 4 m/s 747 mmHg 85%
    04:00 0°C° 0,2 mm 4 m/s 747 mmHg 86%
    05:00 0°C° 0,2 mm 4 m/s 747 mmHg 86%
    06:00 0°C° 0,2 mm 4 m/s 748 mmHg 86%
    07:00 +2°C° 0,2 mm 3 m/s 748 mmHg 86%
    08:00 +1°C° 0,2 mm 4 m/s 748 mmHg 86%
    09:00 +2°C° 0,2 mm 5 m/s 749 mmHg 85%
    10:00 +3°C° 0,2 mm 5 m/s 749 mmHg 85%
    11:00 +3°C° 0,1 mm 6 m/s 749 mmHg 83%
    12:00 +3°C° 0,1 mm 6 m/s 750 mmHg 82%
    13:00 +3°C° 0,1 mm 6 m/s 750 mmHg 81%
    14:00 +3°C° 0 mm 6 m/s 751 mmHg 77%
    15:00 +3°C° 0 mm 6 m/s 752 mmHg 73%
    16:00 +3°C° 0 mm 6 m/s 752 mmHg 69%
    17:00 +1°C° 0 mm 5 m/s 753 mmHg 73%
    18:00 0°C° 0 mm 5 m/s 754 mmHg 76%
    19:00 -2°C° 0 mm 4 m/s 755 mmHg 79%
    20:00 -2°C° 0 mm 4 m/s 755 mmHg 79%
    21:00 -2°C° 0 mm 3 m/s 756 mmHg 79%
    22:00 -2°C° 0 mm 3 m/s 757 mmHg 79%
    23:00 -2°C° 0 mm 3 m/s 757 mmHg 79%

    1 Mars, Jeudi

    Heure Température Précipitation Vent Pression Humidité
    00:00 -2°C° 0 mm 3 m/s 757 mmHg 79%
    01:00 -3°C° 0 mm 2 m/s 757 mmHg 79%
    02:00 -4°C° 0 mm 3 m/s 757 mmHg 78%
    03:00 -4°C° 0 mm 3 m/s 757 mmHg 77%
    04:00 -4°C° 0 mm 3 m/s 757 mmHg 76%
    05:00 -2°C° 0 mm 3 m/s 757 mmHg 74%
    06:00 -2°C° 0 mm 3 m/s 757 mmHg 73%
    07:00 -1°C° 0 mm 3 m/s 757 mmHg 72%
    08:00 +1°C° 0 mm 3 m/s 756 mmHg 70%
    09:00 +3°C° 0 mm 3 m/s 756 mmHg 68%
    10:00 +4°C° 0 mm 3 m/s 756 mmHg 67%
    11:00 +5°C° 0,1 mm 3 m/s 756 mmHg 68%
    12:00 +5°C° 0,1 mm 3 m/s 755 mmHg 69%
    13:00 +7°C° 0,1 mm 3 m/s 755 mmHg 71%
    14:00 +5°C° 0,1 mm 3 m/s 754 mmHg 74%
    15:00 +5°C° 0,1 mm 3 m/s 754 mmHg 77%
    16:00 +5°C° 0,1 mm 4 m/s 754 mmHg 80%
    17:00 +5°C° 0 mm 4 m/s 753 mmHg 80%
    18:00 +4°C° 0 mm 4 m/s 753 mmHg 81%
    19:00 +3°C° 0 mm 5 m/s 753 mmHg 82%
    20:00 +3°C° 0 mm 5 m/s 753 mmHg 82%
    21:00 +5°C° 0 mm 5 m/s 753 mmHg 83%
    22:00 +5°C° 0 mm 5 m/s 752 mmHg 83%
    23:00 +5°C° 0,1 mm 5 m/s 752 mmHg 84%

    2 Mars, Vendredi

    Heure Température Précipitation Vent Pression Humidité
    00:00 +5°C° 0,1 mm 5 m/s 751 mmHg 85%
    01:00 +4°C° 0,1 mm 6 m/s 751 mmHg 86%
    02:00 +4°C° 0,2 mm 6 m/s 750 mmHg 86%
    03:00 +4°C° 0,2 mm 6 m/s 749 mmHg 87%
    04:00 +5°C° 0,2 mm 6 m/s 749 mmHg 87%
    05:00 +5°C° 0,3 mm 6 m/s 749 mmHg 88%
    06:00 +5°C° 0,3 mm 6 m/s 748 mmHg 88%
    07:00 +5°C° 0,3 mm 6 m/s 748 mmHg 88%
    08:00 +7°C° 0,1 mm 6 m/s 748 mmHg 87%
    09:00 +8°C° 0,1 mm 7 m/s 748 mmHg 85%
    10:00 +9°C° 0,1 mm 7 m/s 748 mmHg 83%
    11:00 +9°C° 0,4 mm 6 m/s 747 mmHg 82%
    12:00 +10°C° 0,4 mm 6 m/s 747 mmHg 81%
    13:00 +10°C° 0,4 mm 6 m/s 747 mmHg 80%
    14:00 +10°C° 0,5 mm 5 m/s 746 mmHg 83%
    15:00 +9°C° 0,5 mm 5 m/s 746 mmHg 85%
    16:00 +9°C° 0,5 mm 5 m/s 746 mmHg 88%
    17:00 +8°C° 0,3 mm 5 m/s 746 mmHg 89%
    18:00 +8°C° 0,3 mm 5 m/s 747 mmHg 89%
    19:00 +7°C° 0,3 mm 5 m/s 747 mmHg 90%
    20:00 +7°C° 0,3 mm 4 m/s 747 mmHg 89%
    21:00 +7°C° 0,3 mm 4 m/s 747 mmHg 88%
    22:00 +7°C° 0,3 mm 4 m/s 747 mmHg 88%
    23:00 +7°C° 0,3 mm 4 m/s 747 mmHg 88%
    Voir plus